Flag for Germany Weather past 2 weeks in Radebeul, Saxony, Germany

Now
42 °F

Passing clouds.


Feels Like: 37 °F
Forecast: 40 / 43 °F
Wind: 7 mph from Northwest

Location: Dresden-Klotzsche

Current Time: Dec 20, 2014 at 12:51:37 AM

Latest Report: Dec 20, 2014 at 12:00 AM


Visibility: 25 mi

Pressure: 29.98 "Hg

Humidity: 81%

Dew point: 36 °F

Location of RadebeulLocation

Historic Weather in Radebeul — Graph

°F

Radebeul temperature yesterday

Maximum temperature yesterday: 54 °F (at 2:00 AM)
Minimum temperature yesterday: 43 °F (at 11:00 PM)
Average temperature yesterday: 51 °F

Past Weeks' High & Low Weather Summary

 TemperatureHumidityPressure
High54 °F (Dec 19, 2:00 AM)100% (Dec 7, 5:00 AM)30.45 "Hg (Dec 7, 5:00 AM)
Low25 °F (Dec 10, 2:00 AM)62% (Dec 15, 6:00 PM)29.56 "Hg (Dec 12, 11:00 PM)
Average40 °F86%29.99 "Hg
* Reported Midnight between Dec 4 and Dec 5 — Midnight between Dec 19 and Dec 20, Radebeul, Weather by CustomWeather, © 2014

Note: Actual official high and low records may vary slightly from our data, if they occured in-between our weather recording intervals... More about our weather records

Advertising

Radebeul weather history for previous 24 hours

 ConditionsComfort  
Time TempWeatherWind HumidityBarometerVisibility
12:00 AM
Dec 20
42 °FPassing clouds.7 mph81%29.98 "Hg25 mi
11:00 PM
Dec 19
43 °FOvercast.7 mph74%29.95 "Hg22 mi
9:00 PM46 °FOvercast.8 mph80%29.90 "Hg22 mi
8:00 PM46 °FLight rain. Overcast.7 mph78%29.86 "Hg19 mi
7:00 PM46 °FOvercast.7 mph87%29.84 "Hg14 mi
6:00 PM45 °FSprinkles. Low clouds.10 mph92%29.83 "Hg5 mi
5:00 PM50 °FLight rain. Overcast.12 mph85%29.78 "Hg10 mi
3:00 PM52 °FLight rain. Overcast.9 mph80%29.78 "Hg22 mi
2:00 PM52 °FLight rain. Overcast.9 mph78%29.80 "Hg25 mi
1:00 PM53 °FOvercast.10 mph76%29.82 "Hg37 mi
12:00 PM53 °FOvercast.9 mph75%29.83 "Hg37 mi
11:00 AM53 °FOvercast.10 mph74%29.84 "Hg37 mi
9:00 AM53 °FOvercast.10 mph75%29.85 "Hg31 mi
8:00 AM52 °FOvercast.9 mph78%29.85 "Hg28 mi
7:00 AM53 °FLight rain. Overcast.10 mph77%29.86 "Hg28 mi
6:00 AM54 °FOvercast.12 mph78%29.86 "Hg22 mi
5:00 AM54 °FOvercast.9 mph81%29.85 "Hg17 mi
3:00 AM54 °FLight rain. Low clouds.8 mph87%29.85 "Hg16 mi
2:00 AM54 °FOvercast.9 mph84%29.84 "Hg17 mi
1:00 AM54 °FOvercast.10 mph87%29.83 "Hg17 mi
12:00 AM53 °FOvercast.9 mph90%29.83 "Hg14 mi
Weather by CustomWeather, © 2014

See weather overviewHow to use our weather pages